Location: ?
(35.4064°N, 139.3593°E)
Time: 12:25:25
(UTC+00:00)

Cosmos 1484 Rocket - Pass Details

Date: 18 April 2024
Orbit: 480 x 525 km, 97.6° (Epoch: 18 May)

Event Time Altitude Azimuth Distance (km) Brightness Sun altitude
Rises 19:15:49 0° 7° (N) 2,551 6.6 -10.4°
Reaches altitude 10° 19:17:54 10° 4° (N) 1,664 5.6 -10.0°
Maximum altitude 19:21:25 60° 284° (WNW) 555 2.6 -9.3°
Drops below altitude 10° 19:24:54 10° 204° (SSW) 1,649 4.8 -8.7°
Enters shadow 19:26:50 - 201° (SSW) 2,471 5.8 -8.3°
